Regional Weather Roundup
Issued by NWS Goodland, KS

Home | Current Version | Previous Version | Graphics & Text | Print | Product List | Glossary On
Versions: 1 2 3 4 5 6 7 8 9 10 11 12 13 14 15 16 17 18 19 20 21 22 23 24 25 26 27 28 29 30 31 32 33 34 35 36 37 38 39 40 41 42 43 44 45 46 47 48 49 50
000
ASUS43 KGLD 291308
RWRGLD

GOODLAND FORECAST AREA HOURLY WEATHER ROUNDUP
NATIONAL WEATHER SERVICE GOODLAND KS
700 AM MDT FRI MAY 29 2015

...OFFICIAL OBSERVATIONS...

CITY           SKY/WX    TMP DP  RH WIND       PRES   REMARKS
GOODLAND KS    PTSUNNY   57  52  83 NW15      30.07R
HILL CITY KS   MOSUNNY   55  52  89 W9        30.01R
IMPERIAL NEB   MOSUNNY   56  51  84 NW9       30.07R
MCCOOK NEB     SUNNY     58  54  86 NW10      30.02R
AKRON CO       MOSUNNY   52  48  86 NW14      30.14R
BURLINGTON CO  PTSUNNY   54  50  86 NW12      30.10R
LIMON CO       SUNNY     50  47  89 W7        30.16R
$$

...UNOFFICIAL OBSERVATIONS...

CITY           SKY/WX    TMP DP  RH WIND       PRES   REMARKS
COLBY KS       MOSUNNY   57  57 100 NW14      30.06R
LENORA KS        N/A     57  32  39 MISG        N/A
NORTON KS      SUNNY     59  50  72 NW14      30.00R
SHARON SPRINGS   N/A     55  52  90 MISG        N/A
KIT CARSON CO    N/A     54  49  82 MISG        N/A
$$



USA.gov is the U.S. government's official web portal to all federal, state and local government web resources and services.